EHI
0 0 0 0 0 0 0 0 0 0 0 0 0 0 1 3 8 18 27 37 47 58 69 76 77 78 81 83 83 82 81 76 67 59 54 51 45 30 20 22 27 20 9 4
0 0 0 0 0 0 0 0 0 0 0 0 0 0 3 8 15 23 29 39 49 60 72 77 74 73 74 76 76 76 76 70 61 53 45 41 37 25 17 21 26 21 12 7
0 0 0 0 0 0 0 0 0 0 0 0 0 1 6 15 23 27 32 42 53 64 72 73 69 66 65 66 66 70 72 67 60 52 41 36 34 26 22 26 31 28 18 12
0 0 0 0 0 0 0 0 0 0 0 0 0 1 8 21 28 28 31 41 51 59 64 63 61 58 55 56 61 68 71 69 65 59 53 48 44 40 40 43 45 39 27 19
0 0 0 0 0 0 0 0 0 0 0 0 0 0 7 21 28 27 30 37 43 47 52 53 50 46 43 44 53 61 66 68 67 66 66 64 61 59 59 59 58 51 39 32
0 0 0 0 0 0 0 0 0 0 0 0 0 0 6 18 26 27 28 32 36 37 39 40 38 35 31 31 39 48 56 60 62 62 64 67 69 69 67 64 63 58 51 47
0 0 0 0 0 0 0 0 0 0 0 0 0 3 10 19 25 26 25 26 27 26 25 23 22 22 20 21 26 34 43 48 50 50 54 61 66 67 66 63 61 59 57 54
0 0 0 0 0 0 0 0 0 0 0 0 0 4 12 18 19 18 17 16 15 13 12 11 9 10 10 11 15 20 25 30 32 34 39 46 52 54 57 60 59 57 55 52
0 0 0 0 0 0 0 0 0 0 0 0 0 3 8 10 8 6 6 7 7 6 5 5 3 2 3 4 5 7 9 12 14 16 20 26 30 35 42 48 50 50 49 46
0 0 0 0 0 0 0 0 0 0 0 0 0 2 6 7 4 1 1 3 3 2 1 1 0 0 1 1 2 2 3 3 4 5 6 8 12 16 21 28 33 37 38 37
0 0 0 0 0 0 0 0 0 0 0 0 0 4 10 11 5 1 1 2 2 1 0 0 0 0 0 0 1 1 1 1 1 1 1 2 3 4 6 10 15 18 20 22
0 0 0 0 0 0 0 0 0 0 0 0 0 4 9 9 4 1 0 1 1 0 0 0 0 0 0 0 0 0 0 0 0 0 0 0 0 0 1 2 3 4 5 6
0 0 0 0 0 0 0 0 0 0 0 0 0 2 4 3 1 0 0 0 0 0 0 0 0 0 0 0 0 0 0 0 0 0 0 0 0 0 0 0 0 0 0 0
0 0 0 0 0 0 0 0 0 0 0 0 0 0 1 1 1 0 0 0 0 0 0 0 0 0 0 0 0 0 0 0 0 0 0 0 0 0 0 0 0 0 0 0
0 0 0 0 0 0 0 0 0 0 0 0 0 0 1 1 1 0 0 0 0 0 0 0 0 0 0 0 0 0 0 0 0 0 0 0 0 0 0 0 0 0 0 0
0 0 0 0 0 0 0 0 0 0 0 0 0 0 0 1 1 0 0 0 0 0 0 0 0 0 0 0 0 0 0 0 0 0 0 0 0 0 0 0 0 0 0 0
0 0 0 0 0 0 0 0 0 0 0 0 0 0 0 0 0 0 0 0 0 0 0 0 0 0 0 0 0 0 0 0 0 0 0 0 0 0 0 0 0 0 0 0
0 0 0 0 0 0 0 0 0 0 0 0 0 0 0 0 0 0 0 0 0 0 0 0 0 0 0 0 0 0 0 0 0 0 0 0 0 0 0 0 0 0 0 0
0 0 0 0 0 0 0 0 0 0 0 0 0 0 0 0 0 0 0 0 0 0 0 0 0 0 0 0 0 0 0 0 0 0 0 0 0 0 0 0 0 0 0 0
0 0 0 0 0 0 0 0 0 0 0 0 0 0 0 0 0 0 0 0 0 0 0 0 0 0 0 0 0 0 0 0 0 0 0 0 0 0 0 0 0 0 0 0
0 0 0 0 0 0 0 0 0 0 0 0 0 0 0 0 0 0 0 0 0 0 0 0 0 0 0 0 0 0 0 0 0 0 0 0 0 0 0 0 0 0 0 0
0 0 0 0 0 0 0 0 0 0 0 0 0 0 0 0 0 0 0 0 0 0 0 0 0 0 0 0 0 0 0 0 0 0 0 0 0 0 0 0 0 0 0 0
0 0 0 0 0 0 0 0 0 0 0 0 0 0 0 0 0 0 0 0 0 0 0 0 0 0 0 0 0 0 0 0 0 0 0 0 0 0 0 0 0 0 0 0
0 0 0 0 0 0 0 0 0 0 0 0 0 0 0 0 0 0 0 0 0 0 0 0 0 0 0 0 0 0 0 0 0 0 0 0 0 0 0 0 0 0 0 0
0 0 0 0 0 0 0 0 0 0 0 0 0 0 0 0 0 0 0 0 0 0 0 0 0 0 0 0 0 0 0 0 0 0 0 0 0 0 0 0 0 0 0 0
0 0 0 0 0 0 0 0 0 0 0 0 0 0 0 0 0 0 0 0 0 0 0 0 0 0 0 0 0 0 0 0 0 0 0 0 0 0 0 0 0 0 0 0
Wind_Speed
9 10 7 7 7 10 13 13 12 6 4 4 7 9 8 3 5 3 3 4 6 6 7 6 5 6 7 7 7 6 5 4 2 1 2 2 2 1 1 1 4 2 1 2
6 4 5 7 7 9 10 10 10 7 5 5 9 13 10 4 2 2 4 3 3 6 7 7 6 5 6 6 5 6 5 3 2 1 1 1 1 1 1 1 3 2 1 1
3 1 4 6 7 8 8 8 9 9 8 9 11 14 10 3 3 7 9 9 8 8 8 7 6 6 5 5 5 4 5 3 1 1 0 0 1 2 2 1 2 3 1 1
5 3 5 7 7 8 7 8 9 11 11 11 11 11 7 4 8 9 10 10 9 10 10 9 9 7 7 6 6 6 4 2 1 0 1 2 2 2 2 1 0 1 2 3
6 7 7 8 6 8 8 8 11 13 14 15 12 10 3 6 9 8 7 6 7 8 10 11 10 9 9 9 8 6 5 3 3 3 3 3 3 3 3 3 3 1 3 4
11 8 6 7 7 7 8 10 12 10 9 12 10 9 4 4 7 9 9 7 7 9 11 11 11 10 10 10 9 8 6 4 4 4 5 5 5 5 6 5 5 4 4 4
10 8 5 6 7 5 8 10 8 6 2 5 8 9 1 6 7 9 9 10 12 12 11 11 12 12 11 12 11 10 10 8 8 7 6 6 6 6 5 5 5 5 4 4
4 5 6 5 6 7 8 9 9 10 10 5 10 5 8 10 9 10 10 10 10 10 10 10 10 10 10 10 10 10 9 8 9 8 8 7 7 6 5 6 6 6 5 5
5 5 7 7 7 6 7 8 11 12 14 12 2 6 6 7 5 5 6 8 9 8 8 8 8 7 7 7 8 8 7 7 7 7 7 5 6 6 6 7 6 6 6 7
6 9 10 8 9 6 7 8 7 7 9 12 11 2 5 8 7 3 3 6 7 6 6 7 6 6 6 6 6 6 5 5 5 6 6 7 6 6 6 6 6 6 7 7
10 10 11 9 7 10 8 8 8 7 9 11 13 6 5 8 5 2 5 6 6 7 8 7 7 6 6 7 7 7 6 6 5 5 5 5 6 6 6 6 6 7 7 7
10 9 10 11 8 10 10 8 7 7 8 10 11 5 9 8 7 6 6 6 7 8 8 9 9 8 8 8 9 8 8 7 7 6 6 6 6 6 7 7 7 7 8 8
8 7 10 6 1 3 7 7 6 6 7 9 10 3 4 4 5 4 5 7 7 9 10 10 9 8 9 9 9 9 9 9 8 8 8 7 7 7 8 8 8 8 8 9
4 7 10 14 14 13 9 8 7 7 7 10 11 5 2 3 5 6 8 10 11 12 11 10 7 7 8 8 8 9 9 9 9 8 9 8 8 9 9 9 9 8 8 9
4 8 11 14 16 13 10 8 9 9 10 10 13 11 7 6 7 9 11 13 15 15 13 10 8 8 8 8 8 9 9 8 8 9 9 9 9 9 9 9 9 9 9 11
7 8 12 15 13 9 6 9 9 9 10 11 13 9 6 7 9 12 14 16 18 16 13 12 12 11 10 10 10 10 9 8 8 9 10 9 9 9 9 9 9 9 9 9
9 11 12 13 12 9 5 10 10 10 11 12 14 11 10 12 14 16 17 19 16 14 15 15 14 12 10 11 9 9 9 9 9 9 10 10 10 10 10 12 10 9 9 9
5 8 7 11 11 6 8 8 9 10 11 12 11 11 13 16 17 18 18 14 15 18 18 16 15 14 13 11 10 10 12 10 10 10 11 10 10 11 9 9 9 8 8 8
1 4 7 7 10 3 6 7 9 11 12 12 12 15 18 19 20 17 15 18 19 18 16 15 15 17 13 13 12 12 12 12 13 13 11 11 10 11 10 10 9 8 8 8
3 5 7 8 11 7 6 8 11 12 5 12 16 18 19 21 18 15 18 20 18 16 15 15 16 16 13 11 11 12 15 14 14 13 12 11 11 11 11 11 10 9 8 9
9 9 7 8 10 6 8 12 14 11 11 16 17 18 19 18 18 19 21 19 18 17 16 15 15 13 11 11 11 13 14 13 13 13 12 11 11 10 11 10 9 9 9 9
6 8 8 8 9 5 11 12 10 10 12 15 17 18 19 20 21 21 21 19 19 18 19 18 13 12 11 11 11 13 13 13 13 13 13 12 11 12 13 9 8 8 8 9
5 6 5 5 6 5 7 9 9 11 14 16 17 19 20 21 22 22 21 18 19 19 17 16 16 13 11 11 12 15 14 13 14 13 13 12 13 11 11 10 10 9 8 7
6 2 4 6 6 8 9 11 13 15 15 17 18 20 21 22 23 22 19 17 16 17 16 15 16 16 15 14 14 14 14 13 13 14 13 11 11 12 11 8 8 8 7 6
3 3 6 8 9 10 11 14 15 16 17 18 19 20 21 22 22 21 17 16 16 16 15 15 15 16 17 15 15 16 15 14 15 14 13 12 11 10 9 9 7 8 7 7
5 6 6 7 9 11 13 15 16 17 18 19 20 20 21 20 21 21 19 17 16 17 17 16 17 18 18 17 17 16 15 14 14 13 12 9 8 8 8 8 8 9 9 9
Wind_Direction
240 246 279 318 313 306 306 306 309 321 30 307 285 282 276 197 223 217 159 176 171 151 131 104 108 107 113 114 112 111 118 114 129 160 190 181 169 207 194 154 113 98 350 356
262 283 332 326 312 296 290 295 301 309 324 295 286 277 268 245 243 54 77 37 102 128 119 115 111 100 98 102 117 121 120 126 147 147 194 132 112 233 199 133 139 156 154 341
296 338 310 295 300 298 300 309 316 317 312 283 273 267 256 231 68 50 46 42 38 62 73 82 83 80 85 104 111 111 109 112 121 120 292 108 190 253 250 191 166 150 152 258
311 307 297 299 306 306 320 333 319 302 290 283 281 280 266 141 92 65 49 36 35 54 59 59 56 54 65 70 72 74 75 78 39 334 352 321 291 298 313 303 281 142 215 235
301 295 291 299 309 309 313 307 295 290 289 283 285 282 259 118 107 95 86 75 53 60 65 60 55 41 45 50 50 53 66 47 20 1 345 319 313 318 323 332 319 310 265 235
293 284 290 299 299 298 305 299 289 294 306 295 316 304 263 128 133 128 123 111 89 72 65 60 58 55 46 44 39 34 36 28 17 7 354 347 332 324 317 315 309 294 273 248
303 311 304 289 299 319 309 301 301 310 320 280 289 275 69 87 106 107 98 83 73 65 59 53 46 39 36 38 36 32 28 25 16 11 1 349 337 325 312 304 296 287 284 284
340 321 296 305 322 315 305 296 298 306 301 262 218 236 88 58 56 70 77 77 71 67 62 56 51 44 32 33 32 26 26 22 15 11 1 355 348 333 324 323 322 312 310 311
315 302 297 314 303 298 301 304 313 304 303 307 277 100 93 83 52 58 71 68 60 55 56 51 47 41 34 28 28 21 16 11 6 0 347 344 354 341 332 327 317 315 316 308
310 310 313 307 293 278 278 303 309 311 314 312 316 90 161 166 168 179 87 59 47 30 31 33 32 23 15 7 4 2 355 351 343 338 333 337 341 332 327 318 313 309 309 309
320 307 303 309 316 322 317 313 324 317 312 315 317 8 83 135 148 127 75 51 27 6 360 357 357 355 347 342 340 340 337 332 327 321 316 316 316 319 317 312 312 313 309 304
342 327 319 312 343 342 319 314 313 313 318 313 309 37 53 70 64 42 37 26 6 346 339 338 338 337 332 332 332 328 324 318 312 308 305 303 303 302 300 301 302 302 301 300
346 323 305 304 64 253 277 288 306 313 305 307 318 38 94 82 63 37 3 349 337 331 327 321 319 320 317 316 314 309 305 300 296 295 291 287 284 284 283 283 283 283 284 285
283 282 288 300 308 312 309 320 347 348 329 325 341 21 81 47 12 358 348 335 325 319 311 306 306 301 296 293 291 291 288 286 285 281 279 276 273 270 269 270 270 271 274 279
321 306 312 307 307 312 327 350 6 5 355 341 342 357 38 29 353 340 333 327 321 315 313 314 312 304 301 300 295 292 290 288 287 285 282 276 272 271 269 269 270 269 268 276
328 308 307 304 312 318 1 25 18 8 359 344 332 342 23 352 339 333 330 324 316 316 327 330 321 314 312 310 305 301 296 292 286 283 283 282 280 278 274 270 268 269 269 272
338 338 319 306 307 303 42 30 16 360 349 340 331 346 357 341 335 331 327 316 322 339 331 320 316 313 310 306 300 295 295 292 288 285 286 285 281 280 277 280 278 273 275 277
343 329 305 300 312 339 72 42 18 346 341 346 352 358 346 333 329 323 314 328 339 328 321 318 315 312 305 302 300 296 296 291 289 286 284 282 281 283 282 281 280 280 280 280
15 324 311 321 338 77 97 37 5 340 330 27 3 343 334 331 320 313 333 338 325 318 316 314 311 308 304 300 298 295 295 294 292 291 287 288 286 286 284 283 282 283 280 279
317 297 291 321 325 350 58 16 346 315 302 22 349 337 331 325 318 321 328 320 316 318 314 310 308 305 301 301 301 296 295 293 291 291 289 289 286 285 285 282 280 280 278 277
340 326 330 335 321 59 29 356 343 326 341 344 333 328 325 322 315 313 317 319 317 313 311 309 306 304 302 300 295 293 294 291 291 290 288 286 283 281 279 274 270 269 271 272
339 339 356 340 328 33 10 358 358 332 329 328 327 325 321 316 314 316 317 316 314 313 312 313 308 303 300 300 300 297 294 295 294 292 290 287 284 283 284 280 279 273 268 268
29 40 341 342 332 353 356 349 350 344 332 328 324 321 319 318 317 317 316 315 314 314 314 313 310 308 308 307 303 300 299 298 295 292 289 286 285 281 277 274 274 272 264 258
96 64 320 316 327 354 350 353 350 341 329 324 322 321 320 317 316 316 316 316 316 317 317 317 316 313 310 309 306 301 300 298 295 293 290 287 284 280 276 270 265 265 264 260
338 334 330 314 359 345 342 347 338 328 328 325 322 321 319 317 317 320 319 320 321 320 320 321 317 314 313 313 309 306 303 301 297 293 289 285 281 279 276 270 262 259 256 254
48 34 354 342 353 328 327 333 329 331 328 325 324 322 321 323 324 325 323 324 323 323 323 321 319 316 313 309 304 301 299 297 293 290 287 283 280 275 269 268 270 254 247 247